GW5750 Weather Reports


Display with metric or nautical units.
time (UTC)temp
F
wind
direction
speed
MPH
gust
MPH
rain 1hr
in
rain 24hr
in
rain mn
in
humidity
%
barometer
mb
20260510190218 82 227 2.0 4.0 0.00 0.02 0.02 75 1016.2
20260510185715 83 223 4.0 6.0 0.00 0.02 0.02 76 1016.1
20260510185214 82 262 4.0 7.0 0.00 0.02 0.02 76 1016.1
20260510184710 81 187 4.0 6.0 0.00 0.02 0.02 76 1016.3
20260510184207 81 273 2.0 3.0 0.00 0.02 0.02 77 1016.3
20260510183701 81 307 5.0 7.0 0.00 0.02 0.02 76 1016.4
20260510183156 80 253 2.0 3.0 0.00 0.02 0.02 78 1016.7
20260510182653 82 241 3.0 3.0 0.00 0.02 0.02 76 1016.7
20260510182149 82 163 4.0 6.0 0.00 0.02 0.02 76 1016.6
20260510181647 83 187 3.0 6.0 0.00 0.02 0.02 76 1016.9
20260510181143 84 241 5.0 7.0 0.00 0.02 0.02 72 1016.7
20260510180638 82 246 3.0 4.0 0.00 0.02 0.02 70 1016.9
20260510180136 82 74 0.0 0.0 0.00 0.02 0.02 71 1016.9
20260510175632 81 10 1.0 1.0 0.00 0.02 0.02 71 1016.9
20260510175128 81 344 1.0 1.0 0.00 0.02 0.02 70 1017.0
20260510174626 83 187 2.0 2.0 0.00 0.02 0.02 68 1017.0
20260510174123 83 59 0.0 0.0 0.00 0.02 0.02 70 1016.9
20260510173619 82 63 0.0 0.0 0.00 0.02 0.02 71 1016.9
20260510173115 83 310 0.0 0.0 0.00 0.02 0.02 71 1017.1
20260510172611 83 69 0.0 0.0 0.00 0.02 0.02 70 1017.2
20260510172107 83 27 1.0 2.0 0.00 0.02 0.02 69 1017.2
20260510171604 81 55 0.0 0.0 0.00 0.02 0.02 71 1017.0
20260510171102 82 81 1.0 3.0 0.00 0.02 0.02 71 1017.1
20260510170558 82 29 1.0 1.0 0.05 0.02 0.02 71 1017.2
20260510170054 83 124 1.0 2.0 0.05 0.02 0.02 70 1017.2
20260510165550 84 27 1.0 2.0 0.00 0.01 0.01 68 1017.1
20260510165046 83 19 3.0 3.0 0.00 0.01 0.01 71 1017.2
20260510164544 83 31 2.0 2.0 0.00 0.01 0.01 70 1017.5
20260510164040 82 120 0.0 1.0 0.00 0.01 0.01 72 1017.3
20260510163535 82 69 1.0 2.0 0.00 0.01 0.01 73 1017.3
20260510163032 81 45 0.0 1.0 0.00 0.01 0.01 74 1017.2
20260510162527 81 49 0.0 0.0 0.00 0.01 0.01 74 1017.3
20260510162024 81 32 2.0 3.0 0.00 0.01 0.01 75 1017.3
20260510161520 80 34 2.0 2.0 0.00 0.01 0.01 73 1017.1
20260510161017 81 29 5.0 6.0 0.00 0.01 0.01 75 1017.1
20260510160514 81 37 2.0 2.0 0.00 0.01 0.01 74 1017.3
20260510160014 81 43 1.0 1.0 0.00 0.01 0.01 73 1017.2
20260510155510 81 102 0.0 0.0 0.00 0.01 0.01 78 1017.1
20260510155007 81 123 1.0 3.0 0.00 0.01 0.01 76 1017.1
20260510154503 80 124 0.0 0.0 0.00 0.01 0.01 80 1017.2
20260510154002 80 141 0.0 0.0 0.00 0.01 0.01 77 1017.3
20260510153458 79 63 2.0 2.0 0.00 0.01 0.01 82 1017.2
20260510152955 78 58 1.0 2.0 0.00 0.01 0.01 83 1017.1
20260510152452 77 59 1.0 3.0 0.00 0.01 0.01 86 1017.0
20260510151948 77 102 1.0 2.0 0.00 0.01 0.01 88 1017.2
20260510151445 76 25 2.0 2.0 0.00 0.01 0.01 88 1017.1
20260510150942 76 39 2.0 3.0 0.00 0.01 0.01 89 1017.2
20260510150438 77 73 3.0 3.0 0.00 0.01 0.01 91 1017.3
20260510145934 76 50 2.0 4.0 0.00 0.01 0.01 93 1017.2
20260510145430 75 110 1.0 1.0 0.00 0.01 0.01 96 1017.4
20260510144927 75 21 3.0 3.0 0.00 0.01 0.01 95 1017.3
20260510144419 75 133 1.0 1.0 0.00 0.01 0.01 97 1017.4
20260510143918 74 52 2.0 2.0 0.00 0.01 0.01 97 1017.6
20260510143415 73 39 1.0 2.0 0.00 0.01 0.01 98 1017.3
20260510142912 73 38 1.0 2.0 0.00 0.01 0.01 97 1017.5
20260510142403 73 49 1.0 2.0 0.00 0.01 0.01 99 1017.3
20260510141859 73 56 0.0 1.0 0.00 0.01 0.01 98 1017.4
20260510141357 72 31 1.0 1.0 0.00 0.01 0.01 99 1017.3
20260510140853 71 34 1.0 2.0 0.00 0.01 0.01 99 1017.2
20260510140350 71 25 2.0 3.0 0.00 0.01 0.01 99 1017.2
20260510135848 72 53 1.0 1.0 0.00 0.01 0.01 99 1017.3
20260510135345 71 71 0.0 0.0 0.00 0.01 0.01 99 1017.1
20260510134842 71 77 1.0 2.0 0.00 0.01 0.01 99 1017.1
20260510134339 71 36 2.0 2.0 0.00 0.01 0.01 99 1017.2
20260510133835 69 48 0.0 0.0 0.00 0.01 0.01 99 1017.3
20260510133331 69 63 1.0 2.0 0.00 0.01 0.01 99 1017.3
20260510132827 69 46 2.0 2.0 0.00 0.01 0.01 99 1017.1
20260510132326 69 27 2.0 2.0 0.00 0.01 0.01 99 1017.1
20260510131822 69 103 0.0 0.0 0.00 0.01 0.01 99 1017.3
20260510131320 68 55 1.0 2.0 0.00 0.01 0.01 99 1017.2
20260510130816 68 59 0.0 0.0 0.00 0.01 0.01 99 1017.1
20260510130313 68 37 1.0 1.0 0.00 0.01 0.01 99 1016.9
20260510125809 68 44 2.0 2.0 0.00 0.01 0.01 99 1016.8
20260510125307 68 33 2.0 2.0 0.00 0.01 0.01 99 1016.9
20260510124803 67 54 1.0 1.0 0.00 0.01 0.01 99 1016.6
20260510124300 67 29 1.0 2.0 0.00 0.01 0.01 99 1016.7
20260510123755 67 45 3.0 3.0 0.00 0.01 0.01 99 1016.5
20260510123251 67 28 2.0 3.0 0.00 0.01 0.01 99 1016.6
20260510122747 67 40 2.0 2.0 0.00 0.01 0.01 99 1016.5
20260510122244 66 22 1.0 2.0 0.00 0.01 0.01 99 1016.2
20260510121740 66 66 1.0 1.0 0.00 0.01 0.01 99 1016.4
20260510121238 66 41 2.0 2.0 0.00 0.01 0.01 99 1016.0
20260510120735 66 43 1.0 1.0 0.00 0.01 0.01 99 1016.2
20260510120232 66 57 0.0 0.0 0.00 0.01 0.01 99 1015.9
20260510115727 65 57 1.0 1.0 0.00 0.01 0.01 99 1015.8
20260510115226 65 80 1.0 2.0 0.00 0.01 0.01 99 1015.8
20260510114715 65 55 1.0 1.0 0.00 0.01 0.01 99 1015.8
20260510114212 65 44 1.0 1.0 0.00 0.01 0.01 99 1015.8
20260510113707 65 37 0.0 0.0 0.00 0.01 0.01 99 1015.6
20260510113205 65 42 1.0 2.0 0.00 0.01 0.01 99 1015.6
20260510112701 65 48 0.0 1.0 0.00 0.01 0.01 99 1015.5
20260510112158 65 47 0.0 0.0 0.00 0.01 0.01 99 1015.4
20260510111653 65 38 0.0 0.0 0.00 0.01 0.01 99 1015.4
20260510111150 65 38 0.0 0.0 0.00 0.01 0.01 99 1015.3
20260510110645 65 41 0.0 0.0 0.00 0.01 0.01 99 1015.3
20260510110144 65 37 1.0 2.0 0.00 0.01 0.01 99 1015.1
20260510105639 65 26 2.0 2.0 0.00 0.01 0.01 99 1015.2
20260510105138 65 61 1.0 1.0 0.00 0.01 0.01 99 1015.3
20260510104636 65 47 0.0 0.0 0.00 0.01 0.01 99 1015.1
20260510104132 65 46 0.0 1.0 0.00 0.01 0.01 99 1014.9
20260510103629 65 60 0.0 0.0 0.00 0.01 0.01 99 1014.9
20260510103125 65 55 0.0 0.0 0.00 0.01 0.01 99 1014.8
20260510102620 65 56 0.0 0.0 0.00 0.01 0.01 99 1014.8
20260510102117 65 56 0.0 0.0 0.00 0.01 0.01 99 1014.8
20260510101615 65 48 0.0 1.0 0.00 0.01 0.01 99 1014.7
20260510101113 65 47 0.0 0.0 0.00 0.01 0.01 99 1014.5
20260510100608 65 71 0.0 0.0 0.00 0.01 0.01 99 1014.7
20260510100106 65 59 0.0 0.0 0.00 0.01 0.01 99 1014.6
20260510095602 66 59 0.0 0.0 0.00 0.01 0.01 99 1014.5
20260510095101 66 65 0.0 0.0 0.00 0.01 0.01 99 1014.5
20260510094600 66 77 0.0 0.0 0.00 0.01 0.01 99 1014.3
20260510094056 66 71 0.0 0.0 0.00 0.01 0.01 99 1014.2
20260510093553 66 78 0.0 0.0 0.00 0.01 0.01 99 1014.3
20260510093050 66 98 0.0 1.0 0.00 0.01 0.01 99 1014.2
20260510092547 66 73 0.0 0.0 0.00 0.01 0.01 99 1014.2
20260510092046 66 58 0.0 0.0 0.00 0.01 0.01 99 1014.1
20260510091543 66 63 0.0 0.0 0.00 0.01 0.01 99 1014.0
20260510091039 66 47 0.0 1.0 0.00 0.01 0.01 99 1014.1
20260510090536 66 44 1.0 1.0 0.00 0.01 0.01 99 1014.1
20260510090032 66 57 0.0 0.0 0.00 0.01 0.01 99 1014.1
20260510085527 66 42 1.0 1.0 0.00 0.01 0.01 99 1013.9
20260510085023 66 45 1.0 1.0 0.00 0.01 0.01 99 1013.9
20260510084520 66 59 1.0 1.0 0.00 0.01 0.01 99 1013.7
20260510084017 66 53 1.0 1.0 0.00 0.01 0.01 99 1013.6
20260510083513 66 35 1.0 1.0 0.00 0.01 0.01 99 1013.6
20260510083009 66 49 0.0 0.0 0.00 0.01 0.01 99 1013.8
20260510082506 66 40 0.0 1.0 0.00 0.01 0.01 99 1013.8
20260510082001 66 48 0.0 0.0 0.00 0.01 0.01 99 1013.6
20260510081456 66 60 0.0 0.0 0.00 0.01 0.01 99 1013.3
20260510080952 67 44 0.0 0.0 0.00 0.01 0.01 99 1013.3
20260510080451 67 44 0.0 0.0 0.00 0.01 0.01 99 1013.3
20260510075948 67 49 0.0 0.0 0.00 0.01 0.01 98 1013.3
20260510075446 67 46 0.0 1.0 0.00 0.01 0.01 98 1013.2
20260510074942 67 48 1.0 1.0 0.00 0.01 0.01 99 1013.1
20260510074440 67 44 1.0 1.0 0.00 0.01 0.01 98 1013.1
20260510073936 67 38 1.0 1.0 0.00 0.01 0.01 98 1013.1
20260510073432 67 45 0.0 1.0 0.00 0.01 0.01 98 1013.1
20260510072928 67 46 0.0 1.0 0.00 0.01 0.01 98 1013.0
20260510072425 67 55 0.0 0.0 0.07 0.01 0.01 98 1013.2
20260510071920 67 57 0.0 0.0 0.07 0.01 0.01 98 1013.2
20260510071417 67 66 0.0 0.0 0.00 0.00 0.00 98 1013.1
20260510070916 67 57 0.0 0.0 0.00 0.00 0.00 98 1012.9
20260510070413 67 69 1.0 2.0 0.00 0.00 0.00 98 1012.9
20260510065908 67 119 1.0 2.0 0.00 0.00 0.00 98 1012.7
20260510065404 67 111 1.0 1.0 0.00 0.00 0.00 98 1013.0
20260510064901 67 79 0.0 1.0 0.00 0.00 0.00 98 1013.1
20260510064359 67 111 2.0 3.0 0.00 0.00 0.00 98 1013.0
20260510063855 67 121 0.0 0.0 0.00 0.00 0.00 98 1013.2
20260510063352 67 51 1.0 1.0 0.00 0.00 0.00 98 1013.3
20260510062848 67 54 0.0 0.0 0.00 0.00 0.00 98 1013.4
20260510062344 67 59 0.0 0.0 0.00 0.00 0.00 98 1013.2
20260510061839 67 51 0.0 0.0 0.00 0.00 0.00 98 1013.3
20260510061336 67 67 0.0 0.0 0.00 0.00 0.00 98 1013.2
20260510060832 67 55 0.0 0.0 0.00 0.00 0.00 98 1013.4
20260510060330 67 93 0.0 0.0 0.00 0.00 0.00 98 1013.5
20260510055827 67 49 0.0 0.0 0.00 0.00 0.00 98 1013.7
20260510055325 67 72 0.0 0.0 0.00 0.00 0.00 98 1013.8
20260510054825 67 59 0.0 0.0 0.00 0.00 0.00 98 1013.8
20260510054320 67 52 0.0 0.0 0.00 0.00 0.00 98 1013.9
20260510053815 67 79 0.0 0.0 0.00 0.00 0.00 98 1013.8
20260510053312 67 75 0.0 0.0 0.00 0.00 0.00 98 1014.0
20260510052808 67 49 0.0 0.0 0.00 0.00 0.00 98 1013.7
20260510052306 67 49 0.0 0.0 0.00 0.00 0.00 98 1013.9
20260510051800 67 60 0.0 0.0 0.00 0.00 0.00 98 1014.2
20260510051257 68 59 0.0 0.0 0.00 0.00 0.00 98 1014.0
20260510050754 68 56 0.0 0.0 0.00 0.00 0.00 98 1014.1
20260510050251 68 72 0.0 0.0 0.00 0.00 0.00 98 1014.1
20260510045747 68 53 0.0 0.0 0.00 0.03 0.03 98 1014.1
20260510045244 68 51 0.0 0.0 0.00 0.03 0.03 98 1014.1
20260510044740 68 112 0.0 0.0 0.00 0.03 0.03 98 1013.9
20260510044239 68 80 0.0 0.0 0.00 0.03 0.03 98 1013.8
20260510043733 68 47 0.0 1.0 0.00 0.03 0.03 98 1013.5
20260510043231 68 41 0.0 0.0 0.00 0.03 0.03 98 1013.8
20260510042728 69 2 2.0 3.0 0.00 0.03 0.03 98 1013.8
20260510042223 69 30 1.0 2.0 0.00 0.03 0.03 98 1014.0
20260510041720 69 344 2.0 2.0 0.00 0.03 0.03 98 1014.3
20260510041218 69 48 0.0 1.0 0.00 0.03 0.03 98 1014.4
20260510040714 69 59 0.0 0.0 0.00 0.03 0.03 97 1014.2
20260510040212 69 59 0.0 0.0 0.00 0.03 0.03 97 1014.3
20260510035707 69 70 0.0 0.0 0.00 0.03 0.03 98 1014.2
20260510035203 69 80 0.0 0.0 0.00 0.03 0.03 97 1014.5
20260510034659 69 55 0.0 0.0 0.00 0.03 0.03 97 1014.6
20260510034156 69 55 0.0 0.0 0.00 0.03 0.03 97 1014.6
20260510033652 69 55 0.0 0.0 0.00 0.03 0.03 97 1014.6
20260510033150 69 47 0.0 0.0 0.00 0.03 0.03 97 1014.6
20260510032646 69 50 0.0 0.0 0.00 0.03 0.03 97 1014.4
20260510032142 69 50 0.0 0.0 0.00 0.03 0.03 97 1014.4
20260510031637 69 50 0.0 0.0 0.00 0.03 0.03 97 1014.3
20260510031135 69 44 0.0 0.0 0.00 0.03 0.03 97 1014.2
20260510030629 69 34 0.0 0.0 0.00 0.03 0.03 97 1014.3
20260510030127 69 48 0.0 0.0 0.00 0.03 0.03 97 1014.3
20260510025623 69 55 0.0 0.0 0.00 0.03 0.03 97 1014.3
20260510025121 69 44 0.0 0.0 0.00 0.03 0.03 97 1014.3
20260510024618 69 54 0.0 0.0 0.00 0.03 0.03 97 1014.0
20260510024114 69 56 0.0 1.0 0.00 0.03 0.03 97 1013.8
20260510023610 69 56 0.0 0.0 0.00 0.03 0.03 97 1013.9
20260510023108 69 50 0.0 0.0 0.00 0.03 0.03 97 1013.8
20260510022607 69 51 0.0 0.0 0.00 0.03 0.03 97 1013.8
20260510022102 69 17 1.0 1.0 0.00 0.03 0.03 97 1013.7
20260510021558 69 43 0.0 1.0 0.00 0.03 0.03 97 1013.8
20260510021055 69 30 1.0 1.0 0.00 0.03 0.03 97 1013.8
20260510020549 69 34 2.0 2.0 0.00 0.03 0.03 97 1013.7
20260510020045 69 54 0.0 1.0 0.00 0.03 0.03 97 1013.5
20260510015536 69 46 0.0 0.0 0.00 0.03 0.03 97 1013.6
20260510015032 69 49 0.0 0.0 0.00 0.03 0.03 97 1013.4
20260510014529 69 53 1.0 1.0 0.00 0.03 0.03 96 1013.4
20260510014026 69 74 0.0 0.0 0.00 0.03 0.03 96 1013.6
20260510013520 69 59 0.0 0.0 0.00 0.03 0.03 96 1013.5
20260510013016 69 81 0.0 0.0 0.00 0.03 0.03 96 1013.8
20260510012511 69 128 1.0 1.0 0.00 0.03 0.03 96 1014.0
20260510012007 69 93 0.0 0.0 0.00 0.03 0.03 96 1014.1
20260510011507 69 108 0.0 1.0 0.00 0.03 0.03 96 1014.2
20260510011003 69 94 0.0 1.0 0.00 0.03 0.03 96 1014.1
20260510010500 69 89 0.0 0.0 0.00 0.03 0.03 96 1014.3
20260510005957 69 77 0.0 0.0 0.00 0.03 0.03 96 1014.1
20260510005452 69 67 0.0 0.0 0.00 0.03 0.03 96 1014.1
20260510004950 69 38 0.0 1.0 0.00 0.03 0.03 96 1014.4
20260510004447 69 52 1.0 1.0 0.00 0.03 0.03 96 1014.4
20260510003945 69 29 1.0 2.0 0.00 0.03 0.03 96 1014.0
20260510003443 69 87 0.0 1.0 0.00 0.03 0.03 96 1014.1
20260510002942 69 163 1.0 2.0 0.00 0.03 0.03 95 1013.7
20260510002439 69 338 1.0 1.0 0.00 0.03 0.03 96 1013.4
20260510001935 69 87 1.0 1.0 0.00 0.03 0.03 95 1012.9
20260510001433 69 57 0.0 0.0 0.00 0.03 0.03 95 1012.6
20260510000930 69 62 2.0 2.0 0.00 0.03 0.03 95 1013.0
20260510000426 69 7 3.0 3.0 0.00 0.03 0.03 95 1012.9
20260509235923 69 55 2.0 2.0 0.00 0.03 0.03 95 1012.2
20260509235420 69 102 2.0 2.0 0.00 0.03 0.03 95 1012.1
20260509234916 69 128 3.0 4.0 0.00 0.03 0.03 94 1012.0
20260509234413 69 124 5.0 7.0 0.00 0.03 0.03 94 1012.0
20260509233911 69 135 3.0 6.0 0.00 0.03 0.03 94 1012.3
20260509233408 69 134 1.0 2.0 0.00 0.03 0.03 94 1012.4
20260509232904 70 125 1.0 2.0 0.00 0.03 0.03 93 1012.6
20260509232402 70 144 0.0 1.0 0.00 0.03 0.03 93 1012.8
20260509231857 70 50 0.0 1.0 0.00 0.03 0.03 93 1012.7
20260509231355 70 59 1.0 1.0 0.00 0.03 0.03 92 1013.0
20260509230853 70 92 1.0 1.0 0.00 0.03 0.03 92 1012.8
20260509230349 70 113 1.0 2.0 0.00 0.03 0.03 92 1012.9
20260509225844 70 110 2.0 2.0 0.00 0.03 0.03 92 1013.0
20260509225342 70 71 0.0 0.0 0.00 0.03 0.03 92 1013.0
20260509224837 70 78 0.0 0.0 0.05 0.03 0.03 92 1013.2
20260509224333 71 66 0.0 1.0 0.05 0.03 0.03 92 1013.2
20260509223831 71 58 0.0 0.0 0.00 0.02 0.02 93 1013.1
20260509223327 71 51 0.0 0.0 0.00 0.02 0.02 93 1013.2
20260509222825 71 53 1.0 1.0 0.00 0.02 0.02 92 1012.9
20260509222320 71 89 1.0 1.0 0.00 0.02 0.02 92 1012.9
20260509221816 71 89 0.0 1.0 0.00 0.02 0.02 92 1012.9
20260509221314 71 95 1.0 1.0 0.00 0.02 0.02 91 1012.8
20260509220814 71 66 0.0 0.0 0.00 0.02 0.02 91 1012.8
20260509220310 71 68 0.0 0.0 0.00 0.02 0.02 91 1012.8
20260509215806 71 50 0.0 1.0 0.00 0.02 0.02 91 1012.7
20260509215305 72 51 2.0 2.0 0.00 0.02 0.02 91 1012.9
20260509214759 71 46 0.0 0.0 0.00 0.02 0.02 91 1013.0
20260509214257 71 50 0.0 1.0 0.00 0.02 0.02 91 1012.7
20260509213753 71 99 0.0 0.0 0.00 0.02 0.02 91 1012.5
20260509213249 71 110 0.0 0.0 0.00 0.02 0.02 90 1012.3
20260509212746 72 106 0.0 1.0 0.00 0.02 0.02 90 1012.5
20260509212244 72 92 0.0 1.0 0.00 0.02 0.02 90 1012.4
20260509211739 72 99 0.0 0.0 0.00 0.02 0.02 90 1012.6
20260509211236 72 81 0.0 0.0 0.00 0.02 0.02 90 1013.0
20260509210732 72 59 0.0 0.0 0.00 0.02 0.02 90 1012.7
20260509210231 72 53 0.0 0.0 0.00 0.02 0.02 90 1012.8
20260509205730 72 79 0.0 1.0 0.00 0.02 0.02 90 1012.9
20260509205230 72 63 0.0 1.0 0.00 0.02 0.02 90 1013.1
20260509204726 72 53 1.0 1.0 0.00 0.02 0.02 89 1012.9
20260509204223 72 25 1.0 1.0 0.00 0.02 0.02 89 1012.8
20260509203718 73 103 0.0 1.0 0.00 0.02 0.02 89 1012.8
20260509203217 73 52 2.0 3.0 0.00 0.02 0.02 89 1013.0
20260509202712 73 66 2.0 2.0 0.00 0.02 0.02 88 1012.5
20260509202207 73 41 0.0 0.0 0.00 0.02 0.02 87 1012.3
20260509201703 73 125 1.0 2.0 0.00 0.02 0.02 87 1011.8
20260509201200 73 132 0.0 1.0 0.00 0.02 0.02 88 1012.3
20260509200656 72 149 1.0 3.0 0.00 0.02 0.02 88 1011.4
20260509200151 72 241 1.0 1.0 0.00 0.02 0.02 88 1011.8
20260509195647 72 193 1.0 1.0 0.00 0.02 0.02 87 1010.9
20260509195143 72 157 1.0 3.0 0.00 0.02 0.02 87 1010.8
20260509194642 72 111 1.0 1.0 0.00 0.02 0.02 87 1010.5
20260509194140 72 106 1.0 2.0 0.00 0.02 0.02 86 1010.8
20260509193636 72 117 2.0 2.0 0.00 0.02 0.02 86 1010.9
20260509193131 72 137 2.0 3.0 0.00 0.02 0.02 86 1010.8
20260509192628 72 143 1.0 2.0 0.00 0.02 0.02 86 1011.0
20260509192124 72 143 1.0 2.0 0.00 0.02 0.02 87 1011.0
20260509191623 72 145 0.0 1.0 0.00 0.02 0.02 87 1011.1
20260509191120 72 143 0.0 0.0 0.00 0.02 0.02 87 1011.3
20260509190617 72 206 3.0 4.0 0.00 0.02 0.02 87 1011.1